Regional Weather Roundup
Issued by NWS

Home | Current Version | Previous Version | Text Only | Print | Product List | Glossary Off
Versions: 1 2 3 4 5 6 7 8 9 10 11 12 13 14 15 16 17 18 19 20 21 22 23 24 25 26 27 28 29 30 31 32 33 34 35 36 37 38 39 40 41 42 43 44 45 46 47 48 49 50

000
ASUS43 KLMK 291110
RWRKY
KENTUCKY REGIONAL WEATHER ROUNDUP
NATIONAL WEATHER SERVICE LOUISVILLE KY
700 AM EDT WED JUL 29 2015

NOTE "FAIR" INDICATES FEW OR NO CLOUDS BELOW 12,000 FEET
WITH NO SIGNIFICANT WEATHER AND/OR OBSTRUCTIONS TO VISIBILITY.

KYZ001>023-026-027-061>063-070>075-291200-
WESTERN AND SOUTH CENTRAL KENTUCKY

CITY           SKY/WX    TMP DP  RH WIND       PRES   REMARKS
PADUCAH        MOCLDY    74  71  91 CALM      30.00R
HENDERSON      PTCLDY    73  70  88 CALM      29.98R
OWENSBORO      PTCLDY    75  75 100 SW5       30.00
HOPKINSVILLE   PTCLDY    73  72  96 CALM      30.01R
BOWLING GREEN  CLEAR     72  70  93 CALM      30.02R
GLASGOW        FOG      N/A N/A N/A CALM      30.02R VSB<1/4
$$

KYZ024-025-028>034-038-045-046-053-291200-
NORTH CENTRAL KENTUCKY

CITY           SKY/WX    TMP DP  RH WIND       PRES   REMARKS
LOUISVILLE/SDF MOCLDY    77  73  87 S5        29.98S FOG
LOUISVILLE/LOU CLEAR     76  73  91 S3        29.99S
FORT KNOX      MOCLDY    72  71  96 SW3       30.00R
$$

KYZ035>037-039>044-047>052-055>060-089>105-291200-
NORTHEAST KENTUCKY

CITY           SKY/WX    TMP DP  RH WIND       PRES   REMARKS
LEXINGTON      CLEAR     71  70  96 CALM      30.01R FOG
COVINGTON      MOCLDY    73  72  96 CALM      29.99R FOG
FRANKFORT      CLEAR     72  70  93 CALM      30.00R FOG
$$

KYZ054-064>069-076>088-106>120-291200-
SOUTHEAST KENTUCKY

CITY           SKY/WX    TMP DP  RH WIND       PRES   REMARKS
JACKSON        FOG       72  70  93 CALM      30.04R VSB 1/2
LONDON         CLOUDY    72  68  87 CALM      30.05R FOG
SOMERSET       CLOUDY    70  70 100 W3        30.05R FOG
MIDDLESBORO    CLOUDY    72  72  99 CALM      30.05R
MONTICELLO     FOG       70  70 100 CALM      30.07R VSB 1/2
$$



USA.gov is the U.S. government's official web portal to all federal, state and local government web resources and services.